K8FJG-13 Weather Reports


time (UTC)temp
F
wind
direction
speed
knots
gust
knots
rain 1hr
in
rain 24hr
in
rain mn
in
humidity
%
barometer
mb
20260506124442 44 315 1.7 2.6 0.00 0.00 0.00 97 964.5
20260506123439 44 321 0.9 1.7 0.00 0.00 0.00 97 964.6
20260506122436 44 295 0.9 0.9 0.00 0.00 0.00 97 964.8
20260506121433 44 320 1.7 1.7 0.00 0.00 0.00 97 964.5
20260506120430 44 251 0.9 0.9 0.00 0.00 0.00 97 964.4
20260506115426 44 337 1.7 2.6 0.00 0.00 0.00 97 964.6
20260506114423 44 309 0.9 0.9 0.00 0.00 0.00 97 964.2
20260506113420 44 334 0.9 0.9 0.00 0.00 0.00 97 964.0
20260506112417 44 4 0.9 0.9 0.00 0.00 0.00 97 964.0
20260506111414 44 315 0.9 0.9 0.00 0.00 0.00 97 963.6
20260506110411 44 308 1.7 2.6 0.00 0.00 0.00 97 963.5
20260506105408 44 350 2.6 4.3 0.00 0.00 0.00 97 963.6
20260506104405 44 346 1.7 2.6 0.00 0.00 0.00 97 963.5
20260506103401 44 348 2.6 4.3 0.00 0.00 0.00 97 963.4
20260506102358 44 2 1.7 1.7 0.00 0.00 0.00 97 962.9
20260506101355 44 31 1.7 2.6 0.00 0.00 0.00 97 962.6
20260506100352 44 18 1.7 2.6 0.00 0.00 0.00 97 963.3
20260506095349 45 343 1.7 2.6 0.00 0.00 0.00 97 963.3
20260506094346 45 254 0.9 0.9 0.00 0.00 0.00 97 963.7
20260506093343 45 332 0.9 0.9 0.00 0.00 0.00 97 963.7
20260506092340 45 354 0.9 1.7 0.00 0.00 0.00 97 963.5
20260506091337 44 355 0.9 1.7 0.00 0.00 0.00 97 963.3
20260506090334 44 61 0.9 1.7 0.00 0.00 0.00 97 963.1
20260506085330 44 263 0.9 1.7 0.00 0.00 0.00 97 962.7
20260506084327 44 287 0.9 0.9 0.00 0.00 0.00 97 963.0
20260506083324 45 332 2.6 2.6 0.00 0.00 0.00 97 963.4
20260506082321 45 352 1.7 2.6 0.00 0.00 0.00 97 963.7
20260506081318 44 281 1.7 1.7 0.00 0.00 0.00 97 963.6
20260506080315 44 4 1.7 2.6 0.00 0.00 0.00 97 963.4
20260506073306 44 358 1.7 1.7 0.00 0.00 0.00 96 963.0
20260506072305 44 299 1.7 1.7 0.00 0.00 0.00 96 963.2
20260506071259 44 355 1.7 2.6 0.00 0.00 0.00 96 963.0
20260506070256 44 10 2.6 2.6 0.00 0.00 0.00 96 963.1
20260506062244 45 116 0.0 0.0 0.00 0.00 0.00 97 963.1
20260506061241 45 339 1.7 2.6 0.00 0.00 0.00 97 963.1
20260506060238 45 325 0.9 0.9 0.00 0.00 0.00 97 963.2
20260506051222 46 35 0.9 1.7 0.00 0.00 0.00 97 963.8
20260506050219 46 355 0.9 0.9 0.00 0.00 0.00 97 963.9
20260506044212 46 345 0.9 0.9 0.00 0.00 0.00 97 964.0
20260506043209 46 5 2.6 2.6 0.00 0.00 0.00 97 964.1
20260506042206 46 338 1.7 1.7 0.00 0.00 0.00 97 964.2
20260506041203 47 348 1.7 1.7 0.00 0.00 0.00 97 964.4
20260506040200 47 337 0.9 0.9 0.00 0.00 0.00 97 964.4
20260506035157 47 330 1.7 2.6 0.00 0.00 0.00 97 964.5
20260506034154 47 332 0.9 1.7 0.00 0.00 0.00 97 964.6
20260506033151 47 265 0.9 0.9 0.00 0.00 0.00 97 964.7
20260506032147 48 5 0.0 0.9 0.00 0.00 0.00 97 964.7
20260506031144 48 333 1.7 1.7 0.00 0.00 0.00 97 964.4
20260506030141 48 349 0.0 0.9 0.00 0.00 0.00 97 964.3
20260506025138 48 331 1.7 2.6 0.00 0.00 0.00 97 964.2
20260506024135 48 345 0.9 0.9 0.00 0.00 0.00 97 964.1
20260506023131 48 343 1.7 1.7 0.00 0.00 0.00 97 964.0
20260506022128 48 308 0.0 0.9 0.00 0.00 0.00 97 964.4
20260506021125 48 326 1.7 1.7 0.00 0.00 0.00 97 964.3
20260506020122 48 309 0.9 0.9 0.00 0.00 0.00 97 964.3
20260506015119 48 7 0.9 0.9 0.00 0.00 0.00 97 964.2
20260506014116 48 305 0.9 1.7 0.00 0.00 0.00 97 964.1
20260506013113 48 228 0.9 0.9 0.00 0.00 0.00 97 964.1
20260506012109 48 308 1.7 2.6 0.00 0.00 0.00 97 963.9
20260506011106 48 24 0.9 1.7 0.00 0.00 0.00 97 963.8
20260506010103 48 355 0.9 0.9 0.00 0.00 0.00 97 963.9
20260506005100 48 283 0.9 0.9 0.00 0.00 0.00 97 963.7
20260506004057 48 350 0.9 0.9 0.00 0.00 0.00 96 963.8
20260506003054 48 339 0.9 0.9 0.00 0.00 0.00 96 963.7
20260506002051 48 7 0.9 0.9 0.00 0.00 0.00 96 963.6
20260506001047 47 54 0.9 1.7 0.00 0.00 0.00 96 963.5
20260506000044 48 340 1.7 1.7 0.00 0.00 0.00 96 963.6
20260505235041 48 57 0.9 1.7 0.00 0.00 0.00 96 963.9
20260505234038 48 3 0.9 1.7 0.00 0.00 0.00 96 963.9
20260505233035 48 26 0.9 1.7 0.00 0.00 0.00 96 963.9
20260505232032 47 294 1.7 2.6 0.00 0.00 0.00 96 964.7
20260505231028 47 307 1.7 1.7 0.00 0.00 0.00 96 963.9
20260505230025 47 27 1.7 2.6 0.00 0.00 0.00 96 963.8
20260505225022 48 346 1.7 2.6 0.00 0.00 0.00 96 964.1
20260505224019 48 354 0.9 1.7 0.00 0.00 0.00 96 964.0
20260505223016 48 8 0.9 0.9 0.00 0.00 0.00 96 964.0
20260505222012 48 0 0.9 0.9 0.00 0.00 0.00 96 964.0
20260505221009 49 0 1.7 2.6 0.00 0.00 0.00 96 964.0
20260505220006 49 12 1.7 2.6 0.00 0.00 0.00 96 963.8
20260505215003 49 30 1.7 3.5 0.00 0.00 0.00 96 963.8
20260505214000 50 314 0.9 1.7 0.00 0.00 0.00 96 963.9
20260505212957 51 225 1.7 1.7 0.00 0.00 0.00 95 964.2
20260505211954 52 342 1.7 3.5 0.00 0.00 0.00 95 963.6
20260505210951 53 325 2.6 3.5 0.00 0.00 0.00 95 963.4
20260505205947 54 337 3.5 3.5 0.00 0.00 0.00 95 963.3
20260505204944 54 304 1.7 2.6 0.00 0.00 0.00 95 963.5
20260505203941 54 249 1.7 1.7 0.00 0.00 0.00 94 963.7
20260505202938 54 263 1.7 1.7 0.00 0.00 0.00 94 963.4
20260505201935 54 289 1.7 1.7 0.00 0.00 0.00 94 963.3
20260505200932 54 287 1.7 2.6 0.00 0.00 0.00 93 963.5
20260505195929 55 299 1.7 2.6 0.00 0.00 0.00 92 963.6
20260505194926 55 287 1.7 3.5 0.00 0.00 0.00 91 963.7
20260505193923 56 293 1.7 1.7 0.00 0.00 0.00 91 963.6
20260505192919 56 305 0.9 1.7 0.00 0.00 0.00 90 963.8
20260505191916 56 269 1.7 1.7 0.00 0.00 0.00 89 963.7
20260505190913 57 276 1.7 1.7 0.00 0.00 0.00 88 963.8
20260505185910 58 284 1.7 4.3 0.00 0.00 0.00 86 963.8
20260505184907 59 330 2.6 3.5 0.00 0.00 0.00 81 963.8
20260505183904 60 286 1.7 2.6 0.00 0.00 0.00 77 963.9
20260505182900 60 292 3.5 5.2 0.00 0.00 0.00 76 963.9
20260505181857 60 320 1.7 3.5 0.00 0.00 0.00 76 963.8
20260505180854 60 295 1.7 3.5 0.00 0.00 0.00 76 963.8
20260505175851 60 239 2.6 3.5 0.00 0.00 0.00 75 963.8
20260505174848 60 281 3.5 6.1 0.00 0.00 0.00 75 963.7
20260505173845 60 281 2.6 4.3 0.00 0.00 0.00 75 963.8
20260505172841 61 306 2.6 4.3 0.00 0.00 0.00 74 963.6
20260505171838 61 290 1.7 4.3 0.00 0.00 0.00 74 963.5
20260505170835 60 281 4.3 7.0 0.00 0.00 0.00 74 963.4
20260505165832 60 283 4.3 7.0 0.00 0.00 0.00 74 963.5
20260505164829 61 294 3.5 4.3 0.00 0.00 0.00 72 963.4
20260505163826 63 285 4.3 12.2 0.00 0.00 0.00 70 963.3
20260505162823 66 283 4.3 9.6 0.00 0.00 0.00 64 963.1
20260505161820 68 276 5.2 8.7 0.00 0.00 0.00 60 962.8
20260505160816 68 277 2.6 3.5 0.00 0.00 0.00 60 962.9
20260505152804 67 234 2.6 7.0 0.00 0.00 0.00 61 962.2
20260505151801 66 186 2.6 5.2 0.00 0.00 0.00 62 962.3
20260505150757 65 316 1.7 3.5 0.00 0.00 0.00 65 962.4